Regional Weather Roundup
Issued by NWS

Home | Current Version | Previous Version | Graphics & Text | Print | Product List | Glossary Off
Versions: 1 2 3 4 5 6 7 8 9 10 11 12 13 14 15 16 17 18 19 20 21 22 23 24 25 26 27 28 29 30 31 32 33 34 35 36 37 38 39 40 41 42 43 44 45 46 47 48 49 50

000
ASUS43 KMKX 191900
RWRWI

WISCONSIN REGIONAL WEATHER ROUNDUP
NATIONAL WEATHER SERVICE MILWAUKEE/SULLIVAN WI
100 PM CST SUN NOV 19 2017

NOTE: "FAIR" INDICATES FEW OR NO CLOUDS BELOW 12,000 FEET WITH NO
SIGNIFICANT WEATHER AND/OR OBSTRUCTIONS TO VISIBILITY.

WIZ001-002-006>008-014>016-023>028-192000-
NORTHWEST WISCONSIN

CITY           SKY/WX    TMP DP  RH WIND       PRES   REMARKS
SUPERIOR ARPT  CLOUDY    24  11  57 SW8       29.95F WCI  15
ASHLAND        CLOUDY    24   8  50 SW12      29.94F WCI  13
HAYWARD        CLOUDY    24   8  50 SW7       29.93F WCI  16
SIREN          CLOUDY    30  13  48 W6        29.95F WCI  24
CUMBERLAND     MOSUNNY   28  12  50 W5        29.95F WCI  23
RICE LAKE      SUNNY     28  14  54 SW6       29.98F WCI  22
CHETEK         MOSUNNY   29  13  51 SW5       29.97F WCI  24
LADYSMITH      CLOUDY    28  11  49 SW8       29.96F WCI  20
EAU CLAIRE     NOT AVBL
MENOMONIE      SUNNY     33  14  45 S7        29.98F WCI  27
NEW RICHMOND   MOSUNNY   32  13  45 SW8       29.97F WCI  25
OSCEOLA        SUNNY     32  15  48 SW7       30.00F WCI  26
$$

WIZ003>005-009-010-017-018-192000-
NORTH CENTRAL WISCONSIN

CITY           SKY/WX    TMP DP  RH WIND       PRES   REMARKS
MANITOWISH WTR CLOUDY    20  12  71 SW8       29.88F WCI  10
ARBOR VITAE    SUNNY     22  13  70 W5        29.88F WCI  15
WOODRUFF       SUNNY     22  13  70 W5        29.88F WCI  15
RHINELANDER    PTSUNNY  N/A N/A N/A W9        29.89F
EAGLE RIVER    MOSUNNY   20  10  66 W8        29.87F WCI  10
LAND O LAKES   FLURRIES  20  13  75 W8        29.89F WCI  10
PHILLIPS       CLOUDY    23   9  53 SW6       29.91F WCI  16
TOMAHAWK       PTSUNNY   24   8  49 W9        29.91F WCI  15
MEDFORD        SUNNY     26   9  50 W12       29.93F WCI  15
MERRILL        MOSUNNY   28   9  44 W10       29.93F WCI  18
$$

WIZ029-030-035-036-043>047-192000-
CENTRAL WISCONSIN

CITY           SKY/WX    TMP DP  RH WIND       PRES   REMARKS
WAUSAU         SUNNY     26  10  50 W10       29.93F WCI  16
MOSINEE        MOSUNNY   27  10  50 W12G17    29.96F WCI  16
MARSHFIELD     SUNNY     28   9  44 W9G17     29.94F WCI  19
STEVENS POINT  SUNNY     25   8  49 W10G20    29.97F WCI  15
WAUPACA        SUNNY     32   8  37 W12       29.98F WCI  23
WAUTOMA        NOT AVBL
WISC RAPIDS    SUNNY     29   9  43 W13       29.98F WCI  19
CAMP DOUGLAS   NOT AVBL
$$

WIZ011>013-019>022-031-037>040-048>050-192000-
NORTHEAST WISCONSIN

CITY           SKY/WX    TMP DP  RH WIND       PRES   REMARKS
ANTIGO         SUNNY     24   9  52 W12       29.91F WCI  13
SHAWANO        SUNNY     32  11  41 W13       29.95S WCI  22
OCONTO         SUNNY     29  11  47 NW8G17    29.94F WCI  21
STURGEON BAY   PTSUNNY   27  14  58 W14G21    29.93F WCI  16
GREEN BAY      SUNNY     31  17  56 W16G23    29.95F WCI  20
MANITOWOC      SUNNY     30  15  53 W16       29.96S WCI  19
APPLETON       SUNNY     28   7  40 W16G23    29.95F WCI  17
CLINTONVILLE   SUNNY     30   9  40 W13       29.96F WCI  20
OSHKOSH        SUNNY     30  12  47 W10       29.97F WCI  21
$$

WIZ032>034-041-042-053>061-192000-
SOUTHWEST WISCONSIN

CITY           SKY/WX    TMP DP  RH WIND       PRES   REMARKS
LA CROSSE      CLOUDY    34  14  43 VRB5      30.03F WCI  30
SPARTA         CLOUDY    30  15  52 W6        30.03F WCI  24
VIROQUA        CLOUDY    31  18  59 W9        30.00F WCI  23
BOSCOBEL       SUNNY     35  13  40 W10G16    30.06F WCI  27
PRAIRIE DU CHI SUNNY     33  13  44 SW9       30.07F WCI  25
PLATTEVILLE    MOSUNNY   32  17  55 W13       30.06F WCI  22
$$

WIZ056-057-062-063-064-067-068-192000-
SOUTH CENTRAL WISCONSIN

CITY           SKY/WX    TMP DP  RH WIND       PRES   REMARKS
REEDSBURG      SUNNY     30  12  47 W8        30.01F WCI  22
BARABOO/DELLS  SUNNY     31  10  40 W9        30.00F WCI  23
LONE ROCK      SUNNY     34  15  46 W14       30.04F WCI  25
MINERAL POINT  SUNNY     32  18  55 W13       30.03F WCI  22
MADISON        MOSUNNY   30  12  47 W8G18     30.02F WCI  22
MIDDLETON      SUNNY     33  14  45 W9        30.03F WCI  25
WATERTOWN      SUNNY     30  13  48 W12G20    30.01F WCI  20
MONROE         MOSUNNY   30  14  51 W14       30.03F WCI  20
JANESVILLE     MOSUNNY   34  16  47 W13       30.04F WCI  25
$$

WIZ051-052-058>065-066-070>072-192000-
SOUTHEAST WISCONSIN

CITY           SKY/WX    TMP DP  RH WIND       PRES   REMARKS
MILWAUKEE      MOSUNNY   33  14  45 W14G24    30.01S WCI  23
WAUKESHA       SUNNY     28  12  50 W13G23    30.01F WCI  18
MILWAUKEE/TIMM   N/A     30  10  43 W15G25    30.01S WCI  19
RACINE         SUNNY     33  14  45 NW18G25   30.02F WCI  22
BURLINGTON     SUNNY     34  21  59 W12G18    30.02F WCI  25
KENOSHA        SUNNY     33  16  49 NW17G25   30.01F WCI  22
FOND DU LAC    SUNNY     30  10  43 W15G21    29.98F WCI  19
SHEBOYGAN      SUNNY     31  15  52 W14       29.97S WCI  21
WEST BEND      SUNNY     30  12  47 NW13      29.98F WCI  20
JUNEAU         SUNNY     28  12  51 W8G20     30.01F WCI  20
$$

LSZ147-162-192000-
LAKE SUPERIOR

STATION/POSITION TIME  TEMP    WIND        PRES    WAVE
                       AIR SEA DIR/SP/G            HT/PER
                 (UTC) (F)     (DEG/KT/KT) (MB)    (FT/S)
DEVILS ISLAND    1800   24     250/ 18/ 24 1014.4F
SAXON HARBOR     1830   24     210/  7/ 11 1013.5F
$$

LMZ867-665-643>646-192000-
LAKE MICHIGAN

STATION/POSITION TIME  TEMP    WIND        PRES    WAVE
                       AIR SEA DIR/SP/G            HT/PER
                 (UTC) (F)     (DEG/KT/KT) (MB)    (FT/S)
N MID LAKE BUOY  1750   28 48  280/ 17/ 25 1013.1S   3/ 4
NORTHPORT PIER   1840   27     310/ 11/ 17 1013.2R
KEWAUNEE LAKESHO 1830   27     270/ 12/ 15 1013.4F
SHEBOYGAN LAKESH 1800   27     280/ 14/ 17 1015.7F
PORT WASHINGTON  1830   31     280/ 13/ 20 1016.6S
MILWAUKEE LAKESH 1850   31     300/ 12/ 17   N/A
S MID LAKE BUOY  1750   30 49  330/ 17/ 23 1016.5R   6/ 7
KENOSHA   LAKESH 1800   31     280/ 14/ 22 1016.6
$$

TC  - TEMPERATURE IN CELSIUS
VSB - VISIBILITY IN STATUTE MILES
WCI - WIND CHILL INDEX
HX  - HEAT INDEX





USA.gov is the U.S. government's official web portal to all federal, state and local government web resources and services.